Theta_e
305 305 305 305 305 306 308 308 306 305 305 305 305 305 305 307 308 311 313 312 313 317 314 315 317 316 314 310 314 313 313 314 316 319 320 341 343 343 344 344 345 343 343 343 341
305 305 305 305 305 306 307 308 306 305 305 305 305 305 307 308 311 316 321 320 313 318 316 314 313 312 309 309 310 311 309 313 313 316 316 331 344 349 348 351 343 339 337 343 341
305 305 305 305 305 305 307 308 306 306 305 305 305 307 308 308 316 321 320 318 315 318 315 316 312 312 311 310 310 311 310 311 313 312 314 322 349 349 348 348 344 343 342 340 341
306 306 306 306 305 305 307 308 307 306 304 304 307 308 308 316 310 322 317 316 318 318 317 312 311 311 311 312 309 311 311 311 312 314 313 314 342 353 349 350 339 339 342 341 336
307 307 307 307 307 306 307 308 307 305 305 306 308 308 311 319 321 318 318 315 314 314 313 310 312 311 312 312 311 311 311 312 312 311 312 317 335 348 353 349 346 346 343 342 336
307 307 307 307 307 307 307 308 307 305 305 307 308 308 321 322 316 322 318 319 320 316 315 312 312 311 313 312 311 311 311 312 312 311 312 322 349 348 346 345 344 345 343 342 338
306 307 307 307 308 308 307 308 307 305 306 307 308 310 320 316 318 321 322 324 321 322 316 317 316 316 316 313 312 313 313 312 313 315 315 315 344 349 345 338 338 338 336 341 339
306 306 307 308 308 308 307 308 307 306 308 307 308 314 317 320 324 322 321 321 320 321 320 318 318 312 314 313 312 313 312 312 313 314 315 315 312 347 344 342 339 338 340 345 341
308 307 308 309 308 307 308 308 308 309 314 308 314 316 321 325 324 321 318 318 318 319 319 318 316 314 312 312 310 311 312 313 314 317 314 316 314 346 343 343 344 346 348 346 342
309 309 309 308 308 307 308 310 313 319 317 317 318 320 320 325 324 321 318 317 317 318 318 318 309 310 307 308 310 311 313 313 314 316 319 318 316 346 345 342 343 344 346 347 343
308 308 308 308 307 308 309 311 317 319 320 324 325 324 326 325 323 321 321 318 318 317 318 318 314 314 311 309 311 312 313 313 315 316 318 316 316 328 343 340 340 338 338 347 339
307 307 308 307 308 308 308 312 321 321 317 321 324 324 326 327 322 321 321 318 318 317 318 317 317 317 315 313 312 312 312 312 313 315 315 317 316 318 348 340 341 340 343 345 341
309 308 308 308 308 311 311 317 325 323 319 322 323 324 325 323 322 322 318 317 318 318 318 318 319 322 322 323 325 321 323 326 316 317 317 317 315 315 331 343 351 344 344 343 341
309 308 308 308 318 315 316 321 322 321 324 327 326 324 321 321 323 322 321 319 320 319 318 321 325 324 316 316 325 326 327 327 329 316 315 315 315 317 330 331 330 331 335 344 343
311 309 308 308 308 311 320 322 323 323 337 331 324 323 322 323 324 322 322 323 325 328 325 326 322 313 313 313 317 326 326 326 327 317 317 326 318 329 330 331 329 328 329 329 336
314 314 314 314 319 320 321 324 323 330 335 327 321 320 320 322 322 318 319 321 323 324 321 323 317 313 313 314 314 315 323 325 324 316 319 327 329 331 332 329 327 326 326 328 329
317 316 316 315 318 321 323 322 332 335 323 319 320 318 318 316 316 318 316 315 316 322 319 317 317 313 312 313 313 313 321 328 330 335 329 324 330 333 329 326 326 325 325 330 333
320 320 321 320 323 322 321 326 332 322 317 317 316 319 316 315 315 319 317 314 312 314 314 315 315 312 312 312 312 311 322 329 334 335 328 325 332 334 327 323 323 323 324 328 329
320 321 322 325 325 324 322 328 321 318 314 316 317 317 316 315 313 313 315 313 313 311 312 312 313 313 311 311 310 311 311 316 324 326 327 325 326 330 323 321 320 323 323 325 327
322 322 324 323 325 323 321 326 317 315 316 316 316 315 315 313 313 311 315 313 313 312 310 315 314 315 313 312 313 312 314 314 315 326 327 328 335 331 324 321 320 323 324 325 323
324 323 327 318 323 319 323 319 315 315 316 316 316 314 315 314 314 313 314 313 313 314 312 313 311 310 312 312 315 317 318 317 313 323 326 328 329 325 323 321 321 323 325 326 321
323 325 327 320 318 316 314 319 314 315 314 315 314 315 315 315 316 316 316 315 314 314 316 314 310 313 316 315 317 318 319 317 319 320 318 323 325 320 319 317 320 324 324 322 316
317 322 325 319 317 317 316 314 314 315 313 315 315 314 315 316 315 315 316 314 315 315 314 313 313 319 317 314 315 318 317 317 317 316 321 321 321 317 317 315 317 322 322 320 316
319 325 313 311 312 316 318 315 313 314 315 315 315 316 314 314 315 316 315 316 315 315 319 316 316 319 318 317 315 318 315 315 317 318 321 324 323 318 316 314 314 320 318 317 314
318 318 311 316 313 315 315 316 316 315 315 316 316 316 314 314 315 315 314 313 315 321 318 316 318 318 316 316 317 316 315 315 318 320 320 319 320 317 315 314 314 317 318 316 314
313 314 312 314 314 317 314 316 315 315 313 318 315 314 312 315 316 315 313 312 313 316 318 313 314 317 317 317 317 318 316 314 315 317 317 315 318 314 313 313 313 313 318 317 314
315 316 314 315 315 316 315 316 315 312 313 313 313 312 314 315 313 311 309 308 311 313 316 314 314 314 316 317 315 318 316 315 314 313 315 316 313 314 314 314 313 312 313 315 315
Wind_Speed
19 18 18 18 18 19 20 19 17 15 14 14 15 17 19 22 24 17 9 24 9 1 10 12 8 9 7 4 4 4 2 5 7 3 4 8 7 2 4 7 5 8 24 14 32
19 19 19 19 19 20 20 20 17 15 14 14 15 17 19 21 22 15 9 10 13 4 6 6 3 3 1 3 3 5 4 8 8 4 9 9 6 9 5 17 8 20 48 28 30
18 18 18 19 18 19 20 20 18 15 15 14 14 15 17 17 5 7 8 6 11 11 12 12 4 3 3 1 4 5 6 7 13 9 9 4 6 7 9 6 11 23 12 6 20
17 18 18 18 18 19 20 20 18 15 14 14 14 14 15 4 3 3 5 3 7 9 12 5 2 4 3 4 7 6 9 7 10 9 7 7 11 9 12 8 20 20 23 16 15
17 17 18 18 19 20 19 19 17 14 13 13 12 12 5 2 9 6 6 4 6 8 8 5 3 4 4 4 3 7 10 11 15 11 7 4 7 11 14 22 25 26 20 18 15
17 17 17 18 19 19 18 17 16 13 12 11 10 9 3 5 4 4 9 7 6 9 5 6 4 4 5 5 1 7 7 9 8 9 6 9 12 9 13 24 31 28 32 31 24
16 16 17 17 18 19 18 16 15 13 11 10 8 5 2 14 2 6 8 10 7 10 5 12 10 2 4 9 7 5 7 10 6 4 5 7 8 13 31 17 19 13 15 18 19
15 15 16 17 18 18 17 16 15 13 11 7 4 1 7 9 18 20 13 21 17 15 17 12 9 6 3 5 9 7 4 6 6 8 8 8 9 6 26 23 21 16 14 17 20
13 14 15 16 17 17 17 16 17 12 7 3 0 2 10 11 8 11 14 12 9 14 17 11 1 1 6 3 6 5 4 7 11 3 5 6 9 12 24 21 21 21 22 22 20
12 13 14 14 15 17 16 18 13 3 2 1 2 4 8 3 6 5 14 15 5 4 4 1 5 3 4 5 5 6 4 5 7 8 0 3 8 18 24 20 24 21 17 17 17
11 11 12 12 14 16 17 6 4 3 3 8 7 5 10 10 11 4 6 6 2 4 3 3 3 7 13 11 10 6 5 8 13 14 2 9 6 11 23 17 14 14 15 10 11
10 11 11 11 12 15 13 0 6 5 8 10 12 10 23 12 5 5 8 4 3 6 3 5 7 16 12 9 7 13 13 13 11 13 7 7 8 2 19 23 24 19 11 15 9
11 11 11 11 12 11 7 11 12 17 2 8 6 5 6 9 5 6 9 4 5 3 6 5 8 10 11 13 15 5 6 8 13 9 2 3 9 7 4 7 15 12 18 19 24
12 11 11 10 6 6 9 14 10 5 4 6 3 4 2 2 2 5 11 8 3 6 5 3 5 15 17 17 12 6 10 16 15 6 5 5 4 13 15 22 22 19 17 11 33
12 11 10 8 11 4 7 21 23 3 3 8 8 5 5 5 3 8 13 10 6 3 7 4 10 13 15 11 11 5 10 10 6 6 5 10 4 7 16 16 21 19 16 17 18
11 10 10 8 11 11 16 24 4 4 1 5 6 9 16 6 7 6 10 8 3 6 6 3 2 8 2 6 7 11 12 6 4 3 4 1 2 5 6 6 11 14 18 21 21
14 15 16 12 6 11 23 4 5 3 6 8 6 7 8 10 9 9 14 13 6 6 7 6 5 8 17 10 8 14 8 5 7 7 3 11 6 3 1 4 5 11 17 21 25
15 18 16 21 17 16 11 5 5 2 3 5 4 4 6 8 8 9 4 6 10 6 4 5 7 11 10 5 6 5 4 4 3 3 5 3 2 5 3 6 5 11 14 19 25
16 12 11 12 6 3 5 4 4 1 2 6 6 5 6 6 5 5 8 7 4 4 4 5 3 5 12 8 5 7 6 5 3 2 2 4 1 4 17 20 21 19 19 19 17
12 9 7 4 4 10 5 3 2 2 2 4 3 5 5 7 6 6 2 4 4 3 5 2 2 3 9 6 7 7 7 6 4 3 4 3 4 6 15 15 14 16 13 14 15
5 3 6 5 9 5 3 3 5 5 5 3 2 5 4 3 3 5 3 1 4 3 7 3 4 7 4 5 4 6 5 5 1 1 2 3 2 4 5 9 11 10 9 9 9
3 2 4 12 4 1 2 4 2 3 6 5 4 4 3 4 3 4 3 3 1 3 3 1 5 1 5 3 10 4 0 3 4 6 3 2 3 6 5 6 7 9 10 5 8
1 3 5 2 3 2 3 2 2 3 2 2 2 2 2 2 2 3 3 4 4 3 5 3 2 3 8 6 4 4 2 2 3 2 3 2 3 6 7 7 8 7 8 5 6
3 3 4 5 0 5 2 0 3 2 2 3 3 1 2 1 2 3 3 3 3 3 6 6 3 5 4 7 4 2 4 5 3 2 3 3 3 6 6 6 8 6 5 6 9
4 2 3 3 4 1 2 2 3 4 3 3 1 3 3 2 3 3 1 4 5 4 3 4 4 3 5 6 1 2 2 4 3 1 2 3 3 3 2 3 4 4 7 7 8
3 4 5 3 4 2 0 3 6 4 4 3 4 1 3 2 4 3 0 2 4 2 3 0 2 2 4 5 5 3 2 2 0 2 2 6 5 5 4 1 6 6 3 3 7
7 5 4 4 5 3 5 6 6 7 3 7 6 4 2 6 6 6 6 5 6 6 4 5 5 3 4 4 0 2 6 5 4 4 4 4 5 4 2 3 1 4 3 4 6
Wind_Direction
325 326 327 331 333 335 336 330 326 325 321 323 324 322 323 325 317 309 251 262 252 182 246 268 273 278 257 224 192 122 107 237 247 235 212 131 197 115 302 63 165 14 306 207 159
322 325 327 329 331 333 334 331 326 325 324 328 329 327 328 328 320 272 314 304 231 215 205 233 306 34 235 241 202 144 157 226 229 227 277 176 168 170 159 95 23 346 306 186 150
320 323 326 324 329 328 330 330 327 327 329 330 328 328 329 332 330 254 330 323 187 210 231 289 268 134 219 116 270 206 207 229 272 256 250 168 152 151 125 114 146 219 4 266 157
319 320 323 322 326 324 328 330 328 328 328 325 327 333 330 356 309 276 303 95 146 220 236 234 214 154 214 209 226 244 262 224 260 246 263 267 123 136 175 155 170 185 191 207 193
314 315 319 321 322 321 325 328 327 325 327 326 332 338 356 345 252 283 242 165 145 174 196 187 199 163 215 226 353 188 248 256 251 255 231 105 149 143 140 139 151 164 175 211 212
306 311 312 316 317 317 320 326 326 324 327 325 334 339 20 290 242 269 217 196 208 195 191 181 223 183 273 264 201 257 258 258 275 247 215 130 132 109 168 158 167 171 179 190 194
300 303 308 312 315 315 317 323 322 323 323 323 329 347 276 241 65 182 228 243 238 211 186 209 235 124 280 293 257 254 329 327 290 248 252 127 149 159 174 188 195 211 188 195 192
299 303 306 309 311 311 316 322 319 319 317 315 315 83 252 277 316 264 256 255 255 247 238 269 243 203 189 274 346 352 40 4 311 317 265 110 267 187 173 182 196 213 215 205 189
304 303 303 308 311 310 316 321 311 312 309 278 3 119 269 301 272 257 241 227 268 230 236 260 103 225 359 57 357 351 261 300 314 256 259 150 262 174 175 186 192 196 199 198 193
311 308 310 312 310 311 324 321 323 352 119 94 274 320 270 269 228 238 207 230 226 243 346 339 46 19 5 62 237 246 259 260 263 287 85 298 252 161 190 195 188 191 194 194 192
321 316 315 313 315 318 334 333 14 26 194 205 199 241 288 291 180 213 189 194 270 22 244 294 74 245 243 210 229 242 270 262 270 275 310 262 262 206 193 193 204 196 200 187 163
326 321 319 319 318 319 325 185 224 311 307 222 240 238 256 266 289 271 196 149 148 253 35 9 253 256 246 260 252 267 255 270 284 265 173 286 309 359 170 206 206 199 189 187 122
335 331 329 325 323 320 295 260 303 309 331 295 220 216 231 154 216 243 149 180 199 246 249 178 284 349 56 39 3 4 41 299 268 284 111 16 331 336 133 332 223 234 190 160 145
342 337 333 331 324 329 271 351 313 198 44 279 248 254 115 116 311 207 201 169 190 220 291 104 326 47 31 21 6 19 338 335 326 334 275 72 259 52 23 36 27 6 353 256 179
352 349 339 326 305 264 304 328 329 69 29 330 340 71 340 139 264 350 24 45 14 39 69 307 33 42 42 360 3 310 334 319 313 301 65 15 49 354 28 8 356 355 343 327 301
350 351 344 325 296 283 333 326 355 45 293 12 348 342 7 350 23 50 49 41 42 51 39 48 310 46 307 4 21 327 349 17 360 34 72 323 236 347 24 354 336 342 340 335 317
321 313 301 281 257 308 325 11 47 86 334 347 337 355 356 44 11 51 54 40 41 28 2 348 23 353 8 353 6 3 31 359 353 7 270 357 18 200 226 10 339 334 340 350 339
325 311 302 286 285 287 337 47 69 65 358 329 322 3 59 21 30 34 82 77 26 50 64 39 346 4 356 355 312 343 47 137 241 246 278 320 209 151 27 27 325 15 15 5 9
328 315 293 302 286 163 77 51 182 66 336 330 329 52 23 357 54 59 85 70 63 58 85 34 297 356 2 333 13 313 6 203 144 333 326 269 271 103 10 14 3 8 11 13 21
325 319 274 302 231 121 75 219 104 87 6 29 58 27 42 7 29 28 56 338 108 86 109 335 343 349 314 359 14 75 326 15 7 165 251 302 71 18 358 351 358 7 355 12 28
350 12 266 318 158 61 158 180 108 60 74 78 67 29 82 17 355 359 37 117 65 71 96 114 94 302 357 21 11 1 17 8 169 70 323 315 9 326 313 321 336 347 8 20 57
13 355 292 309 53 53 126 142 152 111 44 30 95 81 100 12 318 36 62 80 209 170 72 44 130 286 268 263 112 109 161 112 120 289 259 203 243 314 304 354 0 356 343 86 73
42 250 359 80 98 334 258 98 101 126 144 99 88 107 135 73 357 14 23 358 73 85 150 187 42 15 342 349 6 90 334 160 241 18 170 151 261 356 353 13 358 6 0 68 74
67 352 332 37 245 122 45 127 144 100 131 130 186 328 108 94 140 288 18 12 55 119 123 92 113 149 199 234 252 288 31 2 76 86 303 303 323 315 10 7 342 21 41 62 81
32 286 207 308 325 111 142 246 128 177 143 161 37 112 148 207 297 274 330 9 28 101 89 105 165 218 248 268 220 120 74 50 73 210 211 315 223 296 86 31 332 326 141 127 115
54 34 346 282 306 320 24 237 177 141 145 175 153 126 67 155 187 230 229 198 202 283 100 339 221 234 286 287 184 147 180 118 127 174 248 315 246 224 146 178 17 8 99 120 143
355 329 106 282 334 24 244 214 187 142 237 180 169 144 215 195 197 216 207 199 202 186 195 172 154 107 254 272 306 339 210 185 207 230 181 233 244 249 186 155 212 311 315 204 170